Погода в Мяундже

Россия / Магаданская область     63°03′05″N   147°10′51″E
темп.,
°C
ветер,
м/с
пор.,
м/с
влажн.,
%
обл.,
%
осадки,
мм/ч
давл.,
гПа
погр.,
м
9 марта, вт
вт923:00−37ссз11990 0.0 100919
02:00−38ссз11980 0.0 100919
05:00−38сз11980 0.0 100919
08:00−38ссз11981 0.0 101019
11:00−32зсз11917 0.0 101082
14:00−28зсз218927 0.0 1009202
17:00−28зсз119430 0.0 100919
20:00−34сз111000 0.0 101219
10 марта, ср
ср1023:00−35сз111000 0.0 101419
02:00−35с111000 0.0 101419
05:00−36зсз0010012 0.0 101519
08:00−35сз0010017 0.0 101619
11:00−29з009624 0.0 101567
14:00−25юз118850 0.0 1013212
17:00−24юз019241 0.0 101220
20:00−30вюв119715 0.0 101419
11 марта, чт
чт1123:00−30вюв119838 0.0 101419
02:00−30вюв119992 0.0 101319
05:00−31юв1110092 0.0 101319
08:00−32ю1110061 0.0 101419
11:00−26зсз009132 0.0 101391
14:00−24з118644 0.0 1011221
17:00−23сз129271 0.0 101153
20:00−29ссз119978 0.0 101219
12 марта, пт
пт1223:00−30ссз229846 0.0 101319
02:00−31сз12963 0.0 101319
05:00−32сз22902 0.0 101319
08:00−33сз22900 0.0 101319
11:00−27сз22880 0.0 1012124
14:00−24зсз23820 0.0 1010335
17:00−24з11863 0.0 100920
20:00−31зсз11930 0.0 101119
13 марта, сб
сб1323:00−33сз11940 0.0 101219
02:00−35сз11960 0.0 101219
05:00−36зсз11990 0.0 101219
08:00−36ссз111000 0.0 101119
11:00−29зсз00870 0.0 100796
14:00−26юв118010 0.0 1003256
17:00−25вюв118852 0.0 100190
20:00−27зсз1189100 0.0 100219